Tracking 19575 objects as of 19-Feb-2019
HD Live streaming from Space Station
objects crossing your sky now

THORAD DELTA 1 DEB

Track THORAD DELTA 1 DEB now!
10-day predictions


NORAD ID: 10990
Int'l Code: 1974-089EK
Perigee: 1,351.7 km
Apogee: 1,467.4 km
Inclination: 101.3 °
Period: 113.8 minutes
Semi major axis: 7780 km
RCS: 0.0954 m2 (small)
Launch date: November 15, 1974
Source: United States (US)
Launch site: AIR FORCE WESTERN TEST RANGE (AFWTR)

Note: This is SATELLITE DEBRIS
aabbcc
Your satellite tracking list
Your tracking list is empty




NASA's NSSDC Master Catalog

Two Line Element Set (TLE):
1 10990U 74089EK  19049.82139025 -.00000030 +00000-0 +71870-4 0  9991
2 10990 101.3230 115.4041 0074377 050.1033 063.2807 12.64994999043013
Source of the keplerian elements: AFSPC